Location: La Coruña
(43.3623°N, 8.4115°W)
Time: 11:37:47
(UTC+01:00)

STARLINK-1085 - Pass Details

Date: 19 January 2020
Orbit: 349 x 350 km, 53.0° (Epoch: 18 February)

Event Time Altitude Azimuth Distance (km) Brightness Sun altitude
Rises 20:42:06 0° 281° (W) 2,162 7.9 -24.1°
Reaches altitude 10° 20:44:37 10° 304° (NW) 1,321 6.2 -24.6°
Enters shadow 20:45:18 13° 316° (NW) 1,157 5.7 -24.7°
